Regional Weather Roundup
Issued by NWS

Home | Current Version | Previous Version | Graphics & Text | Print | Product List | Glossary On
Versions: 1 2 3 4 5 6 7 8 9 10 11 12 13 14 15 16 17 18 19 20 21 22 23 24 25 26 27
000
ASUS45 KSLC 271710
RWRUT

UTAH REGIONAL WEATHER ROUNDUP
NATIONAL WEATHER SERVICE SALT LAKE CITY UT
1100 AM MDT SAT MAY 27 2017

UTZ001>011-023>025-271800-

NORTHERN UTAH

CITY           SKY/WX    TMP DP  RH WIND       PRES   REMARKS
BRIGHAM CITY   SUNNY     57  37  46 CALM      30.23S
HILL AFB       SUNNY     56  37  47 CALM      30.22S
LOGAN          SUNNY     57  40  52 CALM      30.23S
OGDEN          SUNNY     58  37  45 NE5       30.22S
SALT LAKE CITY MOSUNNY   60  37  42 W7        30.22R
TOOELE VALLEY  SUNNY     57  41  54 N6        30.24R
WENDOVER       SUNNY     60  37  42 SE5       30.24R
HEBER CITY     SUNNY     55  30  38 CALM      30.21S
WEST JORDAN    SUNNY     58  43  56 NW10      30.22S

$$

UTZ011>015-024>027-271800-

CENTRAL/NORTHEAST UTAH

CITY           SKY/WX    TMP DP  RH WIND       PRES   REMARKS
PROVO AIRPORT    N/A     57  38  48 NW10      30.22S
MOAB/CANYONLAN SUNNY     69  26  20 W8        30.07S
DELTA          SUNNY     59  32  36 CALM      30.21S
PRICE          SUNNY     61  30  31 NW12G21   30.15S
ROOSEVELT      SUNNY     61  32  33 SE9       30.18S
VERNAL         CLOUDY    58  34  40 W9        30.16R

$$

UTZ013>016-019>022-027-271800-

SOUTHERN UTAH

CITY           SKY/WX    TMP DP  RH WIND       PRES   REMARKS
BRYCE CANYON   SUNNY     58  31  35 W8G24     30.23R
CEDAR CITY     SUNNY     63  31  30 NE7G17    30.17F
MILFORD        SUNNY     63  33  32 N16G22    30.19S
ST GEORGE      SUNNY     74  35  24 VRB6      30.05S
HANKSVILLE     SUNNY     68  28  22 NW10      30.12F
BLANDING       MOSUNNY   67  28  23 CALM      30.19S

$$

REGIONAL REPORTS     COLORADO/ARIZONA

CITY           SKY/WX    TMP DP  RH WIND       PRES   REMARKS
CRAIG, CO      CLOUDY    48  40  73 CALM      30.19R
GRAND JUNCTION MOSUNNY   66  31  27 NW10G21   30.10S
RIFLE, CO      MOSUNNY   60  33  36 VRB5      30.13S
MONTROSE, CO   MOSUNNY   60  33  36 NE5       30.15R
CORTEZ, CO     MOSUNNY   66  30  26 VRB3G17   30.12S
COLORADO CITY    N/A     73  32  21 CALM      30.15S
PAGE, AZ       SUNNY     71  33  24 VRB3      30.08S
GRAND CANYON   SUNNY     65  26  23 NW6       30.20S
KINGMAN, AZ    SUNNY     78  35  21 W6        30.05R
FLAGSTAFF, AZ  SUNNY     64  21  19 W8        30.22R

$$

REGIONAL REPORTS    NEVADA/IDAHO/WYOMING

CITY           SKY/WX    TMP DP  RH WIND       PRES   REMARKS
LAS VEGAS, NV  SUNNY     82  27  13 N10       29.99R
ELY, NY        SUNNY     58  32  37 N8        30.24S
ELKO, NV       SUNNY     61  34  36 NE6       30.23S
POCATELLO, ID  MOSUNNY   54  48  80 CALM      30.26R
BURLEY, ID     SUNNY     58  43  57 N3        30.22S
FORT BRIDGER,    N/A     51  33  49 NW6       30.27S
EVANSTON, WY   SUNNY     48  34  58 NW5       30.26R
ROCK SPRINGS,  MOSUNNY   50  32  50 VRB5      30.23S
KEMMERER, WY     N/A     50  30  46 CALM      30.25S

$$




USA.gov is the U.S. government's official web portal to all federal, state and local government web resources and services.